TimeMDT,TemperatureF,Dew PointF,Humidity,Sea Level PressureIn,VisibilityMPH,Wind Direction,Wind SpeedMPH,Gust SpeedMPH,PrecipitationIn,Events,Conditions,WindDirDegrees,DateUTC
12:53 AM,71.1,54.0,55,29.92,10.0,NNE,10.4,-,N/A,,Mostly Cloudy,30,2013-09-01 06:53:00
1:53 AM,66.9,53.1,61,29.94,10.0,NNW,8.1,-,N/A,,Mostly Cloudy,330,2013-09-01 07:53:00
2:53 AM,64.9,52.0,63,29.95,10.0,NW,11.5,-,N/A,,Scattered Clouds,320,2013-09-01 08:53:00
3:53 AM,64.9,52.0,63,29.96,10.0,NW,10.4,-,N/A,,Mostly Cloudy,320,2013-09-01 09:53:00
4:53 AM,64.0,53.1,67,30.00,10.0,North,5.8,-,N/A,,Overcast,360,2013-09-01 10:53:00
5:53 AM,63.0,53.1,70,30.00,10.0,NNE,5.8,-,N/A,,Mostly Cloudy,20,2013-09-01 11:53:00
6:46 AM,62.6,51.8,68,30.25,10.0,North,6.9,-,N/A,,Mostly Cloudy,350,2013-09-01 12:46:00
6:53 AM,64.0,52.0,65,30.03,10.0,North,4.6,-,N/A,,Mostly Cloudy,360,2013-09-01 12:53:00
7:53 AM,64.9,52.0,63,30.04,10.0,NE,5.8,-,N/A,,Overcast,40,2013-09-01 13:53:00
8:53 AM,66.0,54.0,65,30.05,10.0,ENE,6.9,-,N/A,,Overcast,70,2013-09-01 14:53:00
9:53 AM,66.9,55.0,66,30.06,10.0,ESE,5.8,-,N/A,,Overcast,120,2013-09-01 15:53:00
10:53 AM,68.0,55.9,65,30.06,10.0,ESE,5.8,-,N/A,,Overcast,110,2013-09-01 16:53:00
11:12 AM,69.8,55.4,60,30.28,10.0,SE,5.8,-,N/A,,Mostly Cloudy,140,2013-09-01 17:12:00
11:53 AM,71.1,55.0,57,30.04,10.0,ESE,6.9,-,N/A,,Mostly Cloudy,110,2013-09-01 17:53:00
12:53 PM,73.0,55.0,53,30.03,10.0,ESE,9.2,-,N/A,,Mostly Cloudy,120,2013-09-01 18:53:00
1:53 PM,77.0,55.9,48,30.00,10.0,ESE,13.8,19.6,N/A,,Mostly Cloudy,110,2013-09-01 19:53:00
2:53 PM,78.1,55.9,46,29.98,10.0,SSE,10.4,19.6,N/A,,Mostly Cloudy,150,2013-09-01 20:53:00
3:53 PM,79.0,55.9,45,29.96,10.0,East,5.8,-,N/A,,Mostly Cloudy,100,2013-09-01 21:53:00
4:53 PM,79.0,55.0,44,29.95,10.0,SSE,10.4,-,N/A,,Mostly Cloudy,150,2013-09-01 22:53:00
5:53 PM,80.1,57.9,47,29.94,10.0,South,20.7,28.8,N/A,,Mostly Cloudy,190,2013-09-01 23:53:00
6:53 PM,75.9,57.0,52,29.94,10.0,South,10.4,19.6,N/A,,Mostly Cloudy,180,2013-09-02 00:53:00
7:53 PM,72.0,57.0,59,29.95,10.0,South,10.4,-,N/A,,Mostly Cloudy,180,2013-09-02 01:53:00
8:53 PM,70.0,55.0,59,29.97,10.0,SSE,9.2,-,N/A,,Mostly Cloudy,150,2013-09-02 02:53:00
9:53 PM,68.0,53.1,59,29.98,10.0,SSE,15.0,25.3,N/A,,Mostly Cloudy,160,2013-09-02 03:53:00
10:53 PM,66.0,53.1,63,29.99,10.0,South,8.1,-,N/A,,Scattered Clouds,170,2013-09-02 04:53:00
11:53 PM,66.9,55.9,68,29.97,10.0,South,10.4,-,N/A,,Scattered Clouds,180,2013-09-02 05:53:00